Location: Deuil
(48.9767°N, 2.3272°E)
Time: 01:41:45
(UTC+00:00)

Cosmos 2360 Rocket - Visible Passes

Search period start: 05 October 2023 00:00
Search period end: 15 October 2023 00:00
Orbit: 832 x 846 km, 71.0° (Epoch: 04 October)

Date Brightness Start Highest point End Pass type
(mag) Time Alt. Az. Time Alt. Az. Time Alt. Az.
05 Oct 4.9 00:06:46 10° N 00:07:29 13° N 00:07:29 13° N visible
05 Oct 4.6 18:31:12 10° W 18:35:22 20° NW 18:39:32 10° N visible
05 Oct 5.0 23:50:57 10° N 23:51:30 12° N 23:51:30 12° N visible
06 Oct 4.5 18:15:11 10° W 18:19:27 21° NW 18:23:43 10° N visible
06 Oct 5.0 23:35:07 10° N 23:35:35 12° N 23:35:35 12° N visible
07 Oct 4.4 17:59:10 10° W 18:03:31 22° NW 18:07:54 10° N visible
07 Oct 5.1 23:19:18 10° N 23:19:43 11° N 23:19:43 11° N visible
08 Oct 4.4 17:43:09 10° W 17:47:36 23° NW 17:52:05 10° N visible
08 Oct 5.1 23:03:29 10° N 23:03:54 11° N 23:03:54 11° N visible
09 Oct 5.0 22:47:41 10° N 22:48:06 11° N 22:48:06 11° N visible
10 Oct 5.0 22:31:52 10° N 22:32:19 11° N 22:32:19 11° N visible
11 Oct 5.0 22:16:03 10° N 22:16:34 12° N 22:16:34 12° N visible
12 Oct 4.9 22:00:15 10° N 22:00:50 12° N 22:00:50 12° N visible
13 Oct 4.9 21:44:26 10° N 21:45:07 12° N 21:45:07 12° N visible
14 Oct 4.9 17:57:54 10° NNW 17:58:12 10° NNW 17:58:30 10° NNW visible
14 Oct 4.8 21:28:38 10° N 21:29:25 12° N 21:29:25 12° N visible
